Location: Unspecified
(0.0000°N, 0.0000°E)
Time: 11:17:01
(UTC+00:00)

Courier 1B - Pass Details

Date: 24 November 2019
Orbit: 963 x 1209 km, 28.3° (Epoch: 14 December)

Event Time Altitude Azimuth Distance (km) Brightness Sun altitude
Rises 20:50:30 0° 216° (SW) 4,020 11.4 -42.3°
Reaches altitude 10° 20:54:10 10° 200° (SSW) 3,092 10.5 -43.1°
Enters shadow 20:57:01 18° 180° (S) 2,586 9.9 -43.7°
